Location: Casper
(42.8670°N, 106.3130°W)
Time: 22:55:15
(UTC-06:00)

Daily predictions for brighter satellites

Satellite Brightness Start Highest point End
(mag) Time Altitude Azimuth Time Altitude Azimuth Time Altitude Azimuth
Cosmos 1782 4.0 21:00:57 10° NNE 21:04:25 27° ENE 21:07:52 10° SE
Atlas Centaur 2 3.2 21:09:17 10° S 21:10:00 10° S 21:10:41 10° SSE
SL-27 R/B 3.7 21:09:48 10° N 21:13:02 28° ENE 21:16:14 10° SE
Cosmos 2263 Rocket 2.9 21:09:15 10° SW 21:14:51 62° WNW 21:20:28 10° NNE
Coronas F rocket 1.4 21:13:52 10° S 21:16:26 49° E 21:19:01 10° NNE
YAOGAN 6 4.1 21:14:50 10° ESE 21:17:30 21° ENE 21:20:11 10° NNE
SL-8 R/B 4.0 21:14:44 10° SW 21:19:20 46° SE 21:23:56 10° ENE
COS B Rocket 4.5 21:17:21 10° NNE 21:21:02 27° E 21:24:24 10° SE
CENTAUR R/B 3.2 21:14:13 10° NW 21:22:06 90° ENE 21:30:26 10° SSE
deb Chang Zheng 4 3.7 21:20:49 10° NNE 21:25:11 59° ESE 21:29:32 10° S
Cosmos 1606 3.9 21:23:03 10° NNE 21:26:30 28° ENE 21:29:28 12° SE
NOSS 2-2 (D) 3.6 21:27:28 10° SSW 21:31:28 55° ESE 21:36:06 10° NE
Cosmos 2184 Rocket 4.0 21:26:03 10° S 21:32:12 82° E 21:38:24 10° N
USA 186 4.5 21:30:43 10° SW 21:32:53 18° W 21:35:09 10° NW
Cosmos 1892 2.8 21:31:03 10° S 21:34:52 79° W 21:38:44 10° N
Cosmos 1908 Rocket 4.3 21:31:14 10° SSE 21:35:12 34° E 21:39:13 10° NNE
USA 245 4.3 21:35:53 15° ESE 21:37:43 24° ENE 21:40:41 10° N
Meteor 2-10 Rocket 4.0 21:32:47 10° NNW 21:38:38 75° W 21:44:19 10° S
Cosmos 1624 Rocket 4.0 21:33:25 10° SSW 21:38:39 78° ESE 21:43:59 10° NNE
Envisat 3.0 21:35:01 10° SSE 21:40:06 87° WSW 21:45:14 10° NNW
H-2A R/B 3.7 21:36:42 11° ESE 21:40:24 20° ENE 21:44:13 10° NNE
Cosmos 1733 Rocket 3.1 21:36:44 10° S 21:41:10 89° W 21:45:36 10° N
Cosmos 1378 Rocket 4.2 21:38:14 10° N 21:42:15 36° ENE 21:45:11 16° SE
CZ-4 SHROUD 3.6 21:40:53 17° SE 21:43:02 47° ENE 21:46:03 10° N
SL-08 ROCKET BODY 4.4 21:38:18 10° S 21:44:21 89° WSW 21:50:21 10° N
NOSS 2-2 (C) 3.5 21:42:02 10° SSW 21:46:07 78° ESE 21:50:54 10° NE
ERBS 2.4 21:44:19 10° NW 21:47:47 78° SW 21:50:03 20° SE
Meteor 2-6 Rocket 4.3 21:41:58 10° N 21:47:58 83° E 21:53:51 10° S
CZ-3C R/B 4.3 21:36:18 10° SW 21:50:21 17° SSW 21:55:54 11° SSE
SPOT 1/Viking Rocket 3.8 21:51:06 16° SE 21:55:04 54° ENE 22:00:09 10° N
Cosmos 407 Rocket 3.5 21:52:48 10° NNW 21:58:05 78° ENE 22:02:05 18° SSE
BREEZE-M DEB (TANK) 3.0 21:56:17 10° W 21:58:12 31° NNW 22:00:29 10° NE
Cosmos 1238 Rocket 2.8 21:56:52 10° N 21:59:48 41° E 22:01:14 26° SE
Cosmos 1452 Rocket 3.7 21:57:26 10° S 22:02:28 49° ESE 22:07:34 10° NNE
SPOT 5 3.3 21:58:36 11° S 22:03:36 74° WSW 22:08:58 10° NNW
PSLV R/B 3.1 22:01:48 21° S 22:03:36 74° WSW 22:06:34 10° NNW
NOSS 2-2 (E) 4.1 22:01:13 10° SW 22:05:23 65° NW 22:10:22 10° NNE
H-2A R/B 3.1 22:01:47 10° S 22:05:57 43° W 22:10:02 10° NNW
COSMOS 2406 3.8 22:02:35 10° NNW 22:08:11 54° WSW 22:13:05 13° S
Cosmos 2084 4.1 22:08:44 26° ESE 22:08:45 26° ESE 22:11:58 10° ENE
Cosmos 1190 Rocket 4.2 22:03:35 10° NNW 22:08:45 69° WSW 22:12:48 17° S
Cosmos 1862 3.3 22:09:05 16° S 22:12:15 75° E 22:16:21 10° NNE
Intercosmos 25 3.9 22:11:43 28° SE 22:12:52 34° E 22:15:53 10° NNE
MetOp-B 4.3 22:09:56 15° S 22:14:29 73° WSW 22:19:51 10° NNW
Cosmos 1140 Rocket 4.1 22:10:05 10° N 22:14:59 42° ENE 22:17:37 24° ESE
PSLV R/B 4.1 22:15:39 10° W 22:18:52 35° SSW 22:19:31 32° S
Terra 2.8 22:16:51 22° ESE 22:18:57 32° ENE 22:23:10 10° N
Nadezhda 3 Rocket 4.1 22:14:54 10° N 22:21:16 81° W 22:26:31 16° S
BREEZE-M DEB (TANK) 4.0 22:18:43 10° W 22:21:33 51° N 22:29:01 10° ENE
Okean 2 Rocket 3.2 22:20:05 26° SSE 22:22:20 55° E 22:26:39 10° NNE
ARGOS 3.1 22:20:05 23° SSE 22:23:35 84° ENE 22:28:58 10° NNW
ATLAS 5 CENTAUR R/B 3.2 22:18:16 10° NW 22:24:01 46° WSW 22:28:29 18° S
BREEZE-M DEB (TANK) 3.4 22:11:22 10° WNW 22:24:14 89° NNE 22:26:27 28° ESE
Sich 1 Rocket 4.4 22:21:29 10° SSW 22:25:57 52° WNW 22:30:27 10° N
Cosmos 2278 Rocket 2.2 22:25:14 12° S 22:30:20 61° ESE 22:35:57 10° NNE
CZ-4B R/B 3.4 22:25:39 10° NNE 22:30:41 89° WNW 22:34:50 14° SSW
CZ-4C R/B 3.6 22:30:16 38° SE 22:31:22 52° ENE 22:35:16 10° N
Cosmos 1825 2.3 22:29:25 21° SSW 22:31:53 73° W 22:35:42 10° N
Cosmos 1844 3.8 22:27:02 10° SSW 22:32:47 86° WNW 22:38:37 10° NNE
Elektron 3 4.0 22:32:11 10° NW 22:35:04 74° NE 22:36:05 43° SE
Cosmos 1850 Rocket 4.5 22:30:17 10° N 22:35:27 49° ENE 22:37:42 30° ESE
Cosmos 1833 Rocket 4.0 22:31:25 10° N 22:36:16 29° NE 22:39:00 20° E
USA 234 3.2 22:29:51 10° NE 22:36:19 60° SE 22:42:43 10° SSW
Cosmos 2341 Rocket 4.1 22:31:21 10° S 22:37:39 79° W 22:43:58 10° N
Cosmos 676 Rocket 4.3 22:33:20 10° NNW 22:38:28 62° WSW 22:41:20 26° S
Cosmos 1184 Rocket 2.8 22:37:23 39° SSW 22:38:30 78° WNW 22:41:51 10° N
Cosmos 1812 4.5 22:37:03 10° NNE 22:39:50 19° ENE 22:40:03 19° ENE
Cosmos 1844 Rocket 3.5 22:38:21 10° SW 22:43:52 53° WNW 22:49:24 10° NNE
Cosmos 1954 Rocket 4.1 22:40:59 10° NNW 22:46:10 69° WSW 22:48:36 32° S
Cosmos 1959 Rocket 4.5 22:43:23 29° SSE 22:46:29 62° E 22:52:30 10° NNE
Cosmos 1174 3.6 22:43:37 10° NW 22:46:48 48° WSW 22:46:59 47° SW
COSMOS 2487 2.5 22:43:31 10° NNW 22:47:08 75° WSW 22:47:48 55° S
Cosmos 1782 Rocket 3.9 22:44:31 21° SSW 22:47:27 65° W 22:51:55 10° N
Timation 2 Rocket 3.9 22:41:39 10° NNW 22:47:39 70° ENE 22:50:18 34° SE
Cosmos 2082 Rocket 2.9 22:43:41 10° NNW 22:49:08 43° ENE 22:51:28 29° ESE
Cosmos 1408 3.9 22:49:55 17° SW 22:52:19 38° WNW 22:55:47 10° N
Cosmos 1741 Rocket 4.0 22:48:12 10° NNW 22:53:26 67° ENE 22:55:12 41° SE
IGS 5A 3.5 22:54:28 51° SE 22:55:18 64° ENE 22:59:26 10° N
CZ-4 R/B 4.1 22:53:03 10° N 22:57:43 64° WNW 23:00:45 21° SSW
Cosmos 2297 3.8 22:58:48 38° SSE 23:00:42 55° ESE 23:06:18 10° NNE
SL-8 R/B 4.3 22:57:05 10° W 23:01:51 59° NNW 23:06:37 10° ENE
Cosmos 1975 Rocket 3.9 22:58:41 10° NNW 23:02:48 43° W 23:04:34 28° SW
APEX 3.3 23:03:19 60° ESE 23:03:26 61° ESE 23:08:12 10° NNE
DNEPR-1 R/B 3.8 22:58:09 10° NNW 23:03:42 81° NE 23:04:57 50° SE
SL-8 Rocket 4.0 23:01:45 24° SSW 23:05:46 80° W 23:12:04 10° N
CARTOSAT-1 3.5 23:04:52 54° S 23:05:49 84° WSW 23:10:09 10° NNW
Cosmos 1242 Rocket 3.4 23:07:40 10° NNW 23:11:08 41° W 23:11:41 38° WSW
Okean 1 4.1 23:10:43 10° N 23:14:26 39° ENE 23:14:26 39° ENE
Cosmos 1536 Rocket 3.5 23:11:07 10° N 23:15:37 79° E 23:16:12 65° SSE
H-2A R/B 2.4 23:17:20 37° SSW 23:19:21 60° W 23:24:40 10° NNW
USA 229 DEB 4.0 23:12:59 10° NNW 23:20:03 65° NE 23:23:13 35° ESE
USA 229 4.0 23:13:05 10° NNW 23:20:10 65° NE 23:23:19 35° ESE
Spot 2 3.9 23:19:05 10° NNE 23:23:33 76° ESE 23:23:46 74° SE
Meteor 2-19 Rocket 4.4 23:21:47 44° S 23:23:48 75° E 23:29:56 10° NNE
Cosmos 2151 Rocket 3.8 23:26:21 50° SW 23:27:23 67° W 23:31:55 10° N
Meteor 2-8 Rocket 4.5 23:27:48 10° NNW 23:33:58 75° W 23:36:00 44° S
SAR-Lupe-2 4.3 23:36:46 49° WNW 23:36:46 49° WNW 23:39:51 10° NNW
Meteor 1-20 Rocket 4.1 23:36:24 55° S 23:37:42 84° E 23:43:18 10° NNE
Meteor 1-25 Rocket 4.3 23:38:22 45° SSW 23:40:16 80° W 23:46:08 10° N
Cosmos 2369 Rocket 4.1 23:43:16 15° E 23:43:16 15° E 23:45:23 10° ENE
Cosmos 2366 rocket 4.5 23:40:48 28° SW 23:44:00 56° WNW 23:50:15 10° N
ALOS 2 4.0 23:44:55 27° ENE 23:44:59 27° ENE 23:48:41 10° N
H-2A R/B 4.4 23:44:04 10° NE 23:46:31 20° ENE 23:46:31 20° ENE
ASTEX 1 3.5 23:46:14 10° N 23:51:09 68° W 23:51:57 57° SW
Okean 1-7 Rocket 3.6 23:50:51 10° N 23:55:12 80° NNE 23:55:12 80° NNE
